EW8555 Weather Reports


time (UTC)temp
C
wind
direction
speed
KPH
gust
KPH
rain 1hr
cm
rain 24hr
cm
rain mn
cm
humidity
%
barometer
mb
20260904121549 25 242 14.5 41.8 0.00 0.00 0.00 65 1004.8
20260904120047 25 252 9.7 37.0 0.00 0.00 0.00 65 1004.9
20260904114544 24 215 16.1 45.1 0.00 0.00 0.00 64 1005.1
20260904113043 24 205 14.5 41.8 0.00 0.00 0.00 64 1005.2
20260904111540 24 229 14.5 32.2 0.00 0.00 0.00 66 1005.7
20260904110036 23 291 17.7 37.0 0.00 0.00 0.00 66 1006.1
20260904104535 23 236 19.3 38.6 0.00 0.00 0.00 66 1006.2
20260904103033 23 301 11.3 32.2 0.00 0.00 0.00 67 1006.5
20260904101530 23 244 8.0 40.2 0.00 0.00 0.00 68 1006.8
20260904100030 23 232 12.9 33.8 0.00 0.00 0.00 70 1006.8
20260904094524 22 248 8.0 33.8 0.00 0.00 0.00 70 1007.1
20260904093024 22 205 17.7 40.2 0.00 0.00 0.00 71 1007.1
20260904091521 22 215 11.3 35.4 0.00 0.00 0.00 75 1007.2
20260904090018 22 200 9.7 29.0 0.00 0.00 0.00 73 1007.6
20260904084515 22 240 16.1 29.0 0.00 0.00 0.00 75 1008.0
20260904083015 21 198 12.9 32.2 0.00 0.00 0.00 78 1008.2
20260904081514 21 238 9.7 30.6 0.00 0.00 0.00 79 1008.3
20260904080007 21 261 12.9 33.8 0.00 0.00 0.00 79 1008.2
20260904074504 21 242 9.7 27.4 0.00 0.00 0.00 79 1008.5
20260904073001 20 231 11.3 24.1 0.00 0.00 0.00 81 1008.9
20260904071600 20 229 12.9 22.5 0.00 0.00 0.00 82 1009.0
20260904070059 20 231 14.5 27.4 0.00 0.00 0.00 83 1009.2
20260904064615 19 184 11.3 20.9 0.00 0.00 0.00 84 1009.4
20260904063053 18 205 11.3 19.3 0.00 0.00 0.00 84 1009.3
20260904061552 18 237 8.0 25.7 0.00 0.00 0.00 84 1009.7
20260904060049 18 221 6.4 19.3 0.00 0.00 0.00 84 1009.8
20260904054546 18 214 8.0 16.1 0.00 0.00 0.00 85 1009.9
20260904053044 18 216 9.7 14.5 0.00 0.00 0.00 85 1010.2
20260904051542 18 200 8.0 16.1 0.00 0.00 0.00 85 1010.5
20260904050046 18 236 8.0 19.3 0.00 0.00 0.00 85 1010.4
20260904044550 18 258 6.4 17.7 0.00 0.00 0.00 85 1010.7
20260904043042 18 225 8.0 22.5 0.00 0.00 0.00 85 1010.6
20260904041539 18 238 6.4 17.7 0.00 0.00 0.00 85 1010.9
20260904040033 18 257 6.4 16.1 0.00 0.00 0.00 85 1011.1
20260904034531 18 202 4.8 14.5 0.00 0.00 0.00 85 1011.2
20260904033030 18 236 6.4 12.9 0.00 0.00 0.00 85 1011.3
20260904031528 18 196 6.4 14.5 0.00 0.00 0.00 85 1011.5
20260904030029 18 226 3.2 14.5 0.00 0.00 0.00 84 1011.6
20260904024525 18 225 4.8 12.9 0.00 0.00 0.00 84 1011.6
20260904023024 18 196 4.8 12.9 0.00 0.00 0.00 84 1011.8
20260904021522 18 220 1.6 6.4 0.00 0.00 0.00 83 1011.8
20260904020033 18 223 1.6 6.4 0.00 0.00 0.00 82 1012.0
20260904014521 18 227 1.6 6.4 0.00 0.00 0.00 82 1011.9
20260904013023 18 240 8.0 11.3 0.00 0.00 0.00 82 1012.1
20260904011519 18 234 4.8 14.5 0.00 0.00 0.00 81 1012.0
20260904010019 18 228 3.2 11.3 0.00 0.00 0.00 81 1012.1
20260904004518 18 251 4.8 12.9 0.00 0.00 0.00 80 1012.1
20260904003018 18 244 4.8 14.5 0.00 0.00 0.00 80 1012.2
20260904001517 18 273 3.2 11.3 0.00 0.00 0.00 80 1012.2
20260904000016 19 234 4.8 19.3 0.00 0.00 0.00 79 1012.3
20260903234514 19 245 6.4 16.1 0.00 0.00 0.00 79 1012.5
20260903233011 18 263 4.8 17.7 0.00 0.00 0.00 80 1012.6
20260903231510 18 266 3.2 12.9 0.00 0.00 0.00 80 1012.6
20260903230008 18 262 4.8 17.7 0.00 0.00 0.00 81 1012.6
20260903224504 18 259 4.8 14.5 0.00 0.00 0.00 82 1012.9
20260903223001 18 252 4.8 16.1 0.00 0.00 0.00 83 1012.9
20260903221559 17 266 6.4 19.3 0.00 0.00 0.00 83 1012.9
20260903220107 17 255 3.2 8.0 0.00 0.00 0.00 83 1013.0
20260903214557 17 259 3.2 11.3 0.00 0.00 0.00 83 1012.8
20260903213057 17 240 3.2 12.9 0.00 0.00 0.00 83 1012.6
20260903211608 17 204 4.8 17.7 0.00 0.00 0.00 83 1012.7
20260903210057 17 171 8.0 17.7 0.00 0.00 0.00 82 1012.7
20260903204601 17 210 6.4 16.1 0.00 0.00 0.00 82 1012.8
20260903203054 17 244 6.4 14.5 0.00 0.00 0.00 82 1012.7
20260903201556 18 236 4.8 12.9 0.00 0.00 0.00 81 1012.8
20260903200101 18 223 3.2 14.5 0.00 0.00 0.00 80 1012.8
20260903194554 18 217 6.4 16.1 0.00 0.00 0.00 80 1012.9
20260903193056 18 259 6.4 19.3 0.00 0.00 0.00 79 1012.9
20260903191601 18 198 4.8 17.7 0.00 0.00 0.00 77 1012.8
20260903190052 19 170 6.4 16.1 0.00 0.00 0.00 76 1012.6
20260903184553 19 239 6.4 20.9 0.00 0.00 0.00 75 1012.9
20260903183113 20 229 6.4 19.3 0.00 0.00 0.00 73 1012.9
20260903181554 20 252 3.2 16.1 0.00 0.00 0.00 74 1012.8
20260903180049 20 216 8.0 22.5 0.00 0.00 0.00 74 1012.4
20260903174548 20 256 6.4 19.3 0.00 0.00 0.00 74 1012.5
20260903173047 20 245 6.4 16.1 0.00 0.00 0.00 73 1012.4
20260903171551 20 205 6.4 20.9 0.00 0.00 0.00 72 1012.5
20260903170047 20 207 8.0 19.3 0.00 0.00 0.00 71 1012.2
20260903164548 21 161 6.4 24.1 0.00 0.00 0.00 69 1012.2
20260903163045 21 236 14.5 27.4 0.00 0.00 0.00 68 1012.2
20260903161600 21 184 14.5 30.6 0.00 0.00 0.00 65 1012.2
20260903160044 22 249 9.7 33.8 0.00 0.00 0.00 64 1012.2
20260903154543 22 266 9.7 30.6 0.00 0.00 0.00 62 1012.3
20260903153042 22 250 9.7 32.2 0.00 0.00 0.00 60 1012.2
20260903151545 22 271 9.7 32.2 0.00 0.00 0.00 58 1012.2
20260903150041 22 229 4.8 29.0 0.00 0.00 0.00 56 1012.1
20260903144540 23 255 9.7 41.8 0.00 0.00 0.00 55 1012.2
20260903143042 23 269 9.7 25.7 0.00 0.00 0.00 55 1012.3
20260903141537 23 232 6.4 16.1 0.00 0.00 0.00 55 1012.4
20260903140036 23 291 4.8 22.5 0.00 0.00 0.00 55 1012.4
20260903134635 23 220 12.9 37.0 0.00 0.00 0.00 54 1012.4
20260903133044 23 229 9.7 32.2 0.00 0.00 0.00 55 1012.3
20260903131539 22 238 8.0 25.7 0.00 0.00 0.00 55 1012.4
20260903130033 22 230 17.7 37.0 0.00 0.00 0.00 55 1012.6
20260903124548 22 203 19.3 33.8 0.00 0.00 0.00 56 1012.7
20260903123030 23 243 11.3 32.2 0.00 0.00 0.00 55 1012.8